GEOSCAN 4 (RS92S4)

Last updated on Wed Sep 09 2026 00:03:16 GMT+0000 (Coordinated Universal Time)

1 64892U 25155S 26251.59626151 .00015550 00000+0 45210-3 0 9998 2 64892 97.4634 221.9484 0003783 228.5719 131.5199 15.35538757 93616
UTC large
Height (km)
Speed (km/s)
/
Latitude / Longitude
Inclination (degrees)
Orbital Period (minutes)
Azimuth
Elevation
Range (km)
Doppler Factor

Next 0 passes for location: London (51.5072 / 0.1276)

No passes found over London.
GEOSCAN 4 (RS92S4)